GFSFLT1_con_lsi_177.txt.gz
Lid_Strength_Index
-1 -1 -1 -2 -2 -1 -1 -1 -1 -1 -1 -1 -1 -1 -1 -1 2 2 0 0 -1 -1 -1 -1 -1 -1 -1 -1 -1 -1 -1 -1 -1
-1 -1 -1 -1 -1 -1 -1 -1 -1 -1 -1 -1 -1 -1 -1 0 2 1 1 0 -1 -1 -1 -1 -1 -1 -1 -1 -1 -1 -1 -1 -1
-1 -1 -1 -1 -1 -1 -1 -1 -1 -1 -1 -1 -1 -2 -1 -0 1 1 1 -1 -2 -2 -1 -1 -1 -1 -1 -1 -1 -1 -1 -1 -1
-1 -2 -1 -1 -1 -1 -2 -1 -1 -1 -1 -1 -1 -1 -1 0 0 0 1 -1 -2 -2 -1 -2 -2 -2 -2 -1 -1 -1 -1 -1 -1
-1 -0 -1 -2 -2 -2 -1 -1 -1 -1 -1 -1 -1 -1 -1 1 0 0 1 -1 -2 -2 -2 -2 -2 -2 -2 -2 -2 -1 -1 -1 -1
-1 -0 -0 -1 -1 -1 -1 -2 -2 -1 -1 -1 -1 -0 1 1 1 1 -1 -2 -2 -2 -2 -2 -2 -2 -2 -2 -2 -1 -1 -1 -1
2 -0 -2 -1 -2 -1 -1 -1 -1 -0 0 1 0 -0 0 1 0 1 -1 -2 -2 -2 -2 -2 -2 -2 -2 -2 -2 -2 -1 -1 -1
6 5 4 3 -0 -1 -1 -0 -0 -0 -0 0 1 1 1 1 1 0 -1 -2 -2 -2 -2 -2 -2 -1 -2 -2 -2 -2 -2 -2 -2
8 7 7 6 5 3 1 -0 -0 -0 -0 -0 -0 -0 0 1 1 1 0 -1 -2 -2 -2 -2 -2 -2 -2 -2 -2 -2 -2 -2 -2
8 8 7 7 6 6 5 4 3 1 0 0 -0 -0 -0 -0 0 1 2 1 -1 -2 -2 -2 -2 -2 -2 -2 -2 -2 -2 -2 -2
7 7 7 7 7 7 7 6 6 4 2 1 0 0 0 -0 -0 -0 0 1 0 -0 -2 -2 -2 -2 -2 -2 -2 -2 -2 -2 -2
7 7 7 7 7 7 7 7 6 6 5 4 3 1 0 0 0 -0 -0 -0 1 0 -1 -2 -2 -2 -2 -2 -2 -2 -1 -1 -1
7 7 7 7 7 7 7 7 7 7 6 6 5 3 1 0 0 -0 -0 -1 -0 0 -0 -1 -2 -2 -2 -2 -2 -2 -1 -1 -1
7 7 7 7 7 7 7 7 7 7 6 6 5 5 4 2 0 0 0 0 -0 -0 0 0 -0 -1 -1 -2 -2 -2 -2 -1 -1
7 7 7 7 7 7 6 7 6 6 6 5 5 5 4 4 3 1 -0 0 -0 -0 -0 0 0 0 -1 -1 -2 -2 -2 -1 -1
7 7 7 7 7 6 6 6 6 6 6 6 5 5 4 5 4 3 2 0 0 0 0 0 0 0 -1 -1 -1 -1 -2 -2 -1
6 7 7 6 6 6 6 6 6 6 5 6 7 8 7 5 4 4 2 2 1 0 0 0 1 1 1 1 -0 -1 -1 -1 -2
6 6 6 6 6 6 5 6 6 6 6 6 6 7 7 6 5 4 4 2 2 0 0 0 -0 1 2 1 1 1 -0 -1 -2
5 5 5 5 5 5 5 4 5 6 7 6 5 6 6 8 8 6 5 2 1 1 0 0 0 0 0 1 2 2 1 -0 -1
6 5 5 5 5 5 4 5 6 6 6 7 7 7 7 6 7 8 7 5 3 1 0 0 1 -0 -0 0 1 1 0 -1 -1

GFSFLT1_con_lsi_180.txt.gz
Lid_Strength_Index
-1 -1 -1 -1 -1 -1 -1 -1 -1 -1 -1 -1 -1 -1 -1 -1 2 2 1 0 -1 -1 -1 -1 -1 -1 -1 -1 -1 -1 -1 -1 -1
-1 -1 -1 -1 -1 -1 -1 -1 -1 -1 -1 -1 -1 -1 -1 0 2 2 1 1 -2 -1 -1 -1 -1 -1 -1 -1 -1 -1 -1 -1 -1
-1 -1 -1 -1 -1 -1 -1 -1 -1 -1 -1 -1 -1 -2 -1 -0 1 1 1 -0 -2 -2 -1 -1 -1 -1 -1 -1 -1 -1 -1 -1 -1
-1 -1 -1 -1 -1 -2 -1 -1 -1 -1 -1 -1 -1 -1 -1 0 0 -0 1 -0 -2 -2 -1 -2 -2 -1 -1 -1 -1 -1 -1 -1 -1
-0 -0 -1 -1 -1 -1 -2 -1 -1 -1 -2 -1 -1 -1 -1 1 1 1 0 -1 -2 -2 -2 -2 -2 -2 -2 -2 -2 -2 -2 -1 -1
3 1 -1 -0 0 -1 -1 -1 -1 -1 -1 -1 -1 -0 1 1 1 1 -0 -2 -2 -2 -2 -2 -2 -2 -2 -2 -2 -2 -2 -2 -1
4 4 2 1 0 2 -0 -1 -1 -1 -0 0 0 0 0 1 1 1 -1 -2 -2 -2 -2 -2 -2 -2 -2 -2 -2 -2 -2 -2 -2
7 6 6 6 4 4 2 1 -1 -0 0 -1 -0 -0 0 0 0 1 0 -1 -2 -2 -2 -2 -2 -2 -2 -2 -2 -2 -2 -2 -1
8 8 7 7 6 6 6 5 4 3 1 0 0 0 -0 -0 -0 0 0 -0 -1 -2 -2 -2 -2 -2 -2 -2 -2 -2 -2 -2 -2
8 8 7 7 7 7 7 6 6 5 4 3 1 0 0 0 0 0 0 -0 -0 -1 -2 -2 -2 -2 -2 -2 -2 -2 -2 -2 -2
7 7 7 7 7 7 7 7 7 7 6 5 4 3 1 0 -0 0 0 -0 -1 -1 -1 -2 -2 -2 -2 -2 -2 -2 -2 -2 -2
7 7 7 7 7 7 7 7 7 7 6 6 5 4 4 2 1 -0 -0 -0 -0 -1 -1 -1 -2 -2 -2 -2 -2 -2 -1 -1 -1
7 7 8 7 7 7 8 7 8 7 7 7 6 5 4 3 2 1 -0 -0 -0 -1 -1 -1 -1 -2 -1 -2 -2 -2 -1 -1 -1
8 8 8 8 7 7 7 7 8 7 7 6 5 5 5 4 2 3 2 1 -0 -0 -1 -1 -1 -1 -1 -2 -2 -2 -2 -1 -1
8 8 8 7 7 7 7 7 6 7 6 5 5 5 5 5 5 4 2 1 0 0 -0 -0 -0 -0 -1 -1 -2 -2 -1 -1 -1
8 8 8 7 7 7 6 6 7 7 6 7 7 6 5 5 5 4 4 2 2 1 -0 0 -0 -0 -1 -1 -1 -1 -1 -1 -1
7 8 7 7 7 6 6 6 6 6 6 7 8 9 7 6 5 5 4 4 2 1 1 0 0 -0 -1 1 -1 -1 -1 -2 -1
7 7 7 6 6 6 6 6 6 7 7 7 7 9 10 7 6 6 5 5 3 2 1 1 0 0 0 0 1 0 -1 -1 -1
6 6 6 6 6 6 5 4 6 7 7 7 5 6 7 8 9 7 6 5 4 3 2 1 2 1 0 0 1 1 1 -1 -1
6 5 6 6 5 5 5 6 7 6 7 7 7 7 7 7 7 8 7 5 5 4 2 2 0 1 -0 0 0 1 0 -1 -1

GFSFLT1_con_lsi_183.txt.gz
Lid_Strength_Index
-1 -1 -1 -1 -1 -1 -1 -1 -1 -1 -1 -1 -1 -1 -1 -1 -1 -1 -1 -1 -1 -1 -1 -1 -1 -1 -1 -1 -1 -1 -1 -1 -1
-1 -1 -1 -1 -1 -1 -1 -1 -1 -1 -1 -1 -1 -1 -2 -1 -1 -1 -1 -1 -2 -1 -1 -1 -1 -1 -1 -1 -1 -1 -1 -1 -1
-1 -1 -1 -1 -1 -1 -1 -1 -1 -1 -1 -1 -1 -2 -1 -1 -1 -1 -1 -1 -2 -2 -2 -1 -1 -1 -1 -2 -2 -1 -2 -2 -1
0 1 -0 -1 -1 -1 -2 -1 -1 -1 -1 -1 -1 -1 -1 -1 -1 -1 -1 -1 -2 -2 -2 -1 -2 -2 -2 -2 -2 -2 -2 -1 -1
1 0 -1 1 0 -1 -1 -1 -1 -1 -2 -2 -1 -1 -1 -1 -1 -1 -1 -1 -2 -2 -2 -2 -2 -2 -2 -2 -2 -2 -2 -2 -2
3 2 1 0 -0 1 0 -1 -1 -1 -1 -1 -1 -0 -1 -1 -1 -1 -1 -1 -2 -2 -2 -2 -2 -2 -2 -2 -2 -2 -2 -2 -2
4 3 3 2 2 1 1 -0 -1 -1 -1 -1 -1 -1 -1 -1 -1 -1 -0 -1 -2 -2 -2 -2 -2 -2 -2 -2 -2 -2 -2 -2 -2
4 3 3 3 3 3 2 2 2 1 0 -1 -1 -0 -1 -1 -1 -1 -1 -1 -2 -2 -2 -2 -2 -2 -2 -2 -2 -2 -2 -2 -2
4 4 4 3 3 3 3 3 3 3 2 2 1 1 -0 -1 -1 -1 -1 -1 -1 -2 -2 -2 -2 -2 -2 -2 -2 -2 -2 -2 -2
4 4 4 4 3 3 3 3 3 3 3 3 3 2 2 1 -0 -1 -1 -1 -1 -2 -1 -2 -2 -2 -2 -2 -2 -2 -2 -2 -2
4 4 4 4 4 4 4 4 4 4 4 4 4 3 3 2 1 0 -0 -2 -1 -2 -1 -1 -1 -2 -2 -2 -2 -2 -2 -2 -2
4 4 4 4 4 4 4 4 4 4 4 4 4 3 3 2 2 1 -0 -1 -2 -2 -2 -2 -1 -1 -1 -2 -2 -2 -1 -1 -1
4 5 5 5 4 5 4 4 4 4 4 4 3 3 2 2 2 1 0 -0 -0 -1 -1 -2 -2 -1 -1 -2 -2 -2 -1 -1 -1
5 5 5 5 5 5 5 4 4 4 4 4 3 2 3 2 2 2 1 0 -0 -1 -1 -1 -1 -1 -2 -2 -2 -2 -1 -1 -1
5 5 6 5 5 5 4 4 4 4 4 4 4 3 2 2 2 2 1 1 -0 -0 -1 -1 -1 -1 -1 -1 -2 -2 -2 -1 -1
5 5 5 5 5 5 4 4 4 4 3 4 4 3 3 2 3 2 2 1 1 0 -0 -1 -1 -1 -1 -1 -1 -1 -2 -1 -1
5 5 5 5 5 4 4 4 4 4 3 5 5 6 4 3 3 3 2 2 1 1 0 -0 -1 -1 -1 -1 -1 -1 -1 -1 -1
5 5 4 4 4 4 3 3 4 4 4 4 5 7 7 6 4 4 3 3 2 1 1 0 -0 -0 -1 -1 -1 -0 -0 -1 -1
4 4 4 4 3 3 3 3 3 4 5 4 3 4 5 6 7 4 3 2 2 2 1 1 -0 -0 -1 -1 -0 0 0 -1 -1
4 4 4 3 3 3 3 3 4 4 4 4 4 5 5 4 6 7 5 3 2 2 2 1 0 -1 -1 -1 -1 0 -0 -1 -1

GFSFLT1_con_lsi_189.txt.gz
Lid_Strength_Index
-1 -1 -1 -1 -1 -1 -1 -1 -1 -1 -1 -1 -1 -1 -1 -1 -1 -1 -1 -1 -1 -1 -1 -1 -1 -1 -1 -1 -1 -1 -1 -1 -1
-1 -1 -1 -1 -1 -1 -1 -1 -1 -1 -1 -1 -1 -1 -2 -1 -0 -1 -1 -1 -1 -1 -1 -1 -1 -1 -1 -1 -1 -1 -1 -1 -1
0 0 -0 -1 -1 -1 -1 -1 -1 -1 -1 -1 -1 -1 -1 -1 -1 -1 -1 -3 -1 -1 -1 -1 -1 -1 -1 -1 -1 -1 -1 -1 -1
1 1 -0 -1 -2 0 -0 -1 -1 -1 -1 -1 -1 -1 -1 -1 -1 -1 -1 -2 -2 -2 -2 -1 -1 -1 -1 -1 -1 -2 -2 -2 -2
2 0 0 0 -0 -1 -1 -2 -2 -1 -1 -2 -1 -1 -0 -1 -1 -1 -1 -0 -0 -1 -2 -2 -2 -1 -2 -1 -1 -1 -2 -2 -2
2 2 2 1 1 0 0 -0 -0 -1 -1 -2 -1 -0 -1 -1 -1 -1 -1 -1 -1 -1 -1 -2 -2 -2 -2 -2 -1 -1 -2 -2 -2
3 2 1 1 1 1 0 0 -0 -0 2 2 -1 -1 -1 -1 -1 -1 -1 -1 -1 -1 -1 -1 -1 -1 -2 -2 -1 -1 -1 -2 -2
1 1 1 1 1 1 1 1 2 2 2 2 3 2 2 1 0 -1 -1 -1 -1 -1 -1 -1 -1 -1 -1 -1 -2 -2 -2 -1 -2
2 2 2 1 1 2 1 2 2 2 2 2 3 3 2 2 2 1 -3 -1 -1 -1 -2 -1 -1 -1 -1 -1 -1 -2 -1 -1 -1
3 3 3 3 3 3 3 3 3 3 3 3 2 2 2 2 2 2 -0 -2 -2 -1 -1 -2 -2 -2 -1 -2 -1 -1 -1 -1 -1
3 3 3 2 2 3 3 3 3 3 3 3 3 3 3 3 3 2 1 -1 -1 -1 -1 -2 -2 -2 -2 -2 -1 -2 -2 -1 -1
2 2 2 2 2 2 2 2 2 3 3 3 3 3 3 2 2 2 2 1 -0 -2 -1 -1 -2 -2 -2 -2 -2 -3 -2 -2 -2
3 3 3 3 3 3 3 3 3 3 3 4 4 4 3 3 3 2 1 1 1 -1 -2 -1 -1 -2 -2 -2 -2 -2 -2 -2 -2
3 3 3 3 3 3 3 3 3 4 4 4 3 3 3 2 2 2 2 1 0 0 -1 -1 -1 -2 -1 -2 -2 -2 -2 -2 -2
3 2 2 2 3 3 3 3 3 3 4 4 3 3 2 1 2 1 1 1 1 1 0 -1 -0 -2 -2 -1 -2 -2 -2 -2 -2
3 3 3 3 3 3 3 3 3 3 3 4 3 3 2 1 1 1 1 1 1 0 0 0 0 -0 -1 -2 -1 -2 -2 -2 -2
3 3 3 3 3 3 3 3 3 3 3 4 4 5 3 2 2 1 1 1 0 1 1 0 0 -0 -0 -0 -1 -1 -2 -2 -2
3 3 3 3 3 3 2 2 3 4 3 3 4 6 6 5 2 2 2 2 1 1 1 1 0 0 0 -0 -1 -0 -1 -1 -2
3 3 3 3 2 3 2 2 3 3 4 2 2 3 4 6 6 3 2 2 2 1 1 1 0 -0 -0 0 1 0 -1 -1 -2
2 2 3 2 3 2 2 2 3 3 3 3 3 3 4 4 5 7 5 3 2 1 1 1 -0 0 0 1 1 1 -1 -1 -2

GFSFLT1_con_lsi_192.txt.gz
Lid_Strength_Index
-1 -1 -1 -1 -1 -1 -1 -1 -1 -1 -1 -1 -1 -1 -2 -2 0 1 -0 0 -1 -1 -1 -1 -1 -1 -1 -1 -1 -1 -1 -1 -1
-1 -1 -1 -1 -1 -1 -1 -1 -1 -1 -1 -1 -1 -1 -1 -0 1 1 2 0 -1 -1 -1 -1 -1 -1 -1 -1 -1 -1 -1 -1 -1
-1 -0 -1 -1 -1 -1 -1 -1 -1 -1 -1 -1 -1 -1 -1 -0 1 1 1 -1 -1 -1 -1 -1 -1 -1 -1 -1 -1 -1 -1 -1 -1
1 1 0 0 -0 -1 -1 -2 -2 -2 -1 -1 -1 -1 -1 -0 -0 -0 -0 -1 -2 -2 -1 -1 -1 -1 -2 -1 -1 -1 -2 -2 -2
-0 0 2 1 1 0 -0 -0 -1 -1 -1 -2 -3 -2 -1 0 -0 -0 -0 -1 -1 -1 -1 -1 -2 -2 -2 -2 -1 -1 -1 -2 -2
4 2 1 1 1 0 -0 -0 -1 -1 -1 -1 -2 -3 0 0 -0 -0 -1 -2 -1 -1 -1 -1 -1 -2 -2 -2 -2 -1 -2 -1 -2
3 2 1 -0 -1 -1 -2 -1 -2 -1 3 4 0 -0 1 2 -0 0 -1 -2 -2 -1 -1 -1 -1 -1 -1 -1 -2 -2 -1 -1 -1
4 5 4 4 2 3 2 2 3 4 4 4 5 5 5 5 5 2 -4 -2 -1 -1 -2 -1 -1 -1 -1 -1 -1 -1 -2 -2 -1
6 6 6 6 5 5 5 4 4 5 4 5 4 4 5 4 4 4 -1 -2 -1 -1 -2 -2 -2 -2 -2 -2 -1 -1 -1 -1 -1
6 6 6 6 5 5 5 5 5 5 5 5 5 5 5 5 4 4 1 -2 -2 -1 -0 -1 -1 -2 -2 -2 -2 -2 -2 -1 -1
5 5 5 5 5 5 5 5 5 5 4 4 4 4 4 4 5 4 4 -0 -1 -1 -0 -1 -1 -2 -2 -2 -2 -2 -3 -2 -2
5 5 5 5 5 5 4 4 4 5 4 5 4 5 5 5 5 4 4 3 1 -1 -1 -1 -1 -2 -2 -2 -2 -2 -2 -2 -2
5 5 5 5 5 5 5 5 5 5 5 6 5 6 5 5 4 4 4 4 3 1 -1 -2 -1 -1 -2 -2 -2 -2 -2 -2 -2
5 5 5 5 5 5 4 5 5 6 6 5 5 5 5 4 3 4 4 3 3 2 0 -1 -1 -2 -2 -2 -2 -2 -2 -2 -2
5 5 5 4 5 5 5 6 5 5 6 4 4 5 5 4 4 4 3 3 2 3 2 2 1 -1 -2 -2 -2 -2 -2 -2 -2
5 5 5 4 5 5 5 5 5 5 5 6 5 5 4 4 4 4 3 3 2 2 2 2 2 2 -1 -2 -2 -2 -2 -2 -2
4 5 5 5 4 5 4 3 4 5 4 6 6 7 6 5 4 4 3 3 3 2 2 2 2 2 2 -0 0 -0 -1 -2 -2
4 5 4 4 4 4 3 3 4 4 5 5 6 8 9 7 5 5 4 4 4 3 2 2 2 1 1 1 2 1 -0 -2 -2
4 4 3 3 3 4 3 2 3 4 5 5 3 3 4 8 8 6 5 4 4 3 3 2 1 1 1 2 2 2 1 -1 -2
4 4 4 3 3 3 3 3 2 4 4 3 4 4 4 4 6 8 7 5 5 4 3 2 2 1 1 2 3 2 1 -1 -2

GFSFLT1_con_lsi_195.txt.gz
Lid_Strength_Index
-1 -1 -1 -1 -1 -1 -1 -1 -1 -1 -1 -1 -1 -1 -1 -1 0 1 1 -0 -1 -1 -1 -1 -1 -1 -1 -1 -1 -1 -1 -1 -1
-2 -2 -2 -2 -1 -1 -1 -1 -1 -1 -1 -1 -1 -1 -1 -0 1 1 1 1 -2 -1 -1 -1 -1 -1 -1 -1 -1 -1 -1 -1 -1
0 0 -1 -0 -1 -1 -1 -2 -2 -1 -1 -1 -1 -1 -1 -0 0 0 0 -0 -2 -2 -1 -1 -1 -1 -1 -1 -1 -1 -1 -2 -1
1 1 1 1 1 0 -0 -1 -1 -1 -2 -2 -2 -3 -1 0 -0 -0 -0 -1 -2 -2 -3 -2 -2 -1 -1 -1 -1 -1 -1 -2 -2
0 0 2 1 1 0 -0 -0 -0 -1 -1 -1 -2 -2 -2 -0 0 -0 -0 -1 -2 -2 -2 -2 -1 -1 -2 -2 -1 -1 -1 -1 -2
4 2 0 0 0 -0 -1 -1 -1 -2 -2 -1 -1 -2 0 0 -0 -0 -1 -1 -2 -2 -2 -2 -1 -1 -1 -2 -2 -1 -1 -1 -1
3 3 1 1 0 -0 0 -0 -1 1 4 4 2 4 2 4 4 1 -3 -2 -2 -2 -1 -1 -1 -1 -1 -1 -1 -1 -1 -1 -1
7 7 7 6 4 6 5 5 5 6 6 5 6 5 6 6 5 4 -1 -2 -2 -1 -1 -1 -2 -2 -1 -2 -2 -1 -1 -1 -1
7 7 7 6 6 6 6 6 6 6 5 6 6 6 6 5 5 4 0 -2 -1 -1 -1 -1 -1 -1 -2 -2 -2 -2 -2 -2 -1
6 6 6 6 6 6 6 6 5 5 5 5 5 5 5 5 5 5 2 -0 -0 -0 -0 -1 -1 -1 -2 -2 -2 -2 -2 -2 -2
6 6 6 6 6 6 6 6 6 6 5 5 5 5 5 5 5 5 5 1 -0 -0 -0 -0 -0 -1 -1 -2 -2 -2 -2 -2 -2
6 6 6 6 6 6 6 5 5 5 5 5 5 5 6 5 5 5 5 4 1 -0 -0 -0 -0 -1 -1 -1 -1 -1 -1 -1 -1
6 6 6 5 5 5 6 6 6 6 6 6 6 6 5 5 4 4 5 4 4 2 -0 -0 -0 -1 -2 -1 -2 -2 -1 -1 -1
6 6 6 5 5 5 5 6 6 6 5 5 5 5 5 4 3 4 4 4 4 4 1 -0 -1 -1 -2 -2 -2 -2 -2 -2 -1
6 6 6 5 5 6 6 6 5 6 5 4 4 5 5 4 4 4 3 3 3 3 3 3 2 -1 -2 -2 -2 -2 -2 -2 -2
6 6 6 5 6 6 5 5 6 6 5 6 5 5 4 4 5 4 4 4 3 2 2 3 3 1 -1 -1 -1 -2 -2 -2 -2
5 6 6 6 6 5 5 4 4 5 5 6 7 8 6 5 4 5 4 5 4 3 2 2 2 1 1 1 0 -0 -1 -2 -2
5 5 5 5 4 4 4 4 4 5 5 5 6 9 9 7 5 5 5 4 5 4 3 2 1 1 2 2 2 1 0 -1 -1
5 5 5 5 4 4 4 3 3 4 5 5 4 3 4 9 9 6 6 5 5 5 3 1 1 1 2 2 2 1 1 -0 -0
5 5 5 5 5 4 4 4 3 3 4 4 4 4 4 5 6 8 7 6 5 5 4 1 1 2 2 3 3 2 1 1 0